User: anonymous   Login
Location: Unspecified
(0.0000°N, 0.0000°E)
Time: 12:58:43
(UTC+00:00)
Language:

USA 234 - Orbit

View from above orbital plane
View from above orbital plane
View from above satellite
View from above satellite

Ground track
Ground track

The orbit data is extracted from the following two-line orbital elements,

1 38109U 12014A   19109.94238837 0.00000000  00000-0  00000-0 0    06
2 38109 122.9982 279.8794 0003695  69.0052 290.9948 13.41418587    00
Epoch (UTC): 19 April 2019 22:37:02
Eccentricity: 0.0003695
inclination: 122.9982°
perigee height: 1101 km
apogee height: 1107 km
right ascension of ascending node: 279.8794°
argument of perigee: 69.0052°
revolutions per day: 13.41418587
mean anomaly at epoch: 290.9948°
orbit number at epoch: 0

The dashed part of the orbit path shows where the satellite is in the earth's shadow,  

DLR